Regional Weather Roundup
Issued by NWS Northern Indiana

Home | Current Version | Previous Version | Text Only | Print | Product List | Glossary On
Versions: 1 2 3 4 5 6 7 8 9 10 11 12 13 14 15 16 17 18 19 20 21 22 23 24 25 26 27 28 29 30 31 32 33 34 35 36 37 38 39 40 41 42 43 44 45 46 47 48 49 50
000
ASUS43 KIWX 280700
RWRIWX

KIWX WEATHER ROUNDUP
NATIONAL WEATHER SERVICE NORTHERN INDIANA
300 AM EDT THU JUL 28 2016

NOTE: "FAIR" INDICATES FEW OR NO CLOUDS BELOW 12,000 FEET WITH NO
SIGNIFICANT WEATHER AND/OR OBSTRUCTIONS TO VISIBILITY.

* THESE STATIONS ARE NOT UNDER NWS QUALITY CONTROL. THEY ALSO MAY NOT
  REPORT WEATHER SUCH AS PRECIPITATION OR FOG.

INZ001>027-280800-
NORTHERN INDIANA

CITY           SKY/WX    TMP DP  RH WIND       PRES   REMARKS
KNOX*          PTCLDY    66  64  94 CALM      29.92F
SOUTH BEND     CLEAR     69  66  90 NW6       29.94F
GOSHEN         PTCLDY    67  62  84 NE3       29.93F
MONTICELLO*    PTCLDY    67  64  87 CALM      29.92F
ANGOLA*        CLEAR     66  64  94 CALM      29.94F
FORT WAYNE     CLOUDY    71  65  81 CALM      29.92F
PERU/GRISSOM   CLEAR     69  67  93 S1        29.90F

$$
INZ028>050-280800-
CENTRAL INDIANA

CITY           SKY/WX    TMP DP  RH WIND       PRES   REMARKS
LAFAYETTE      CLOUDY    68  68 100 CALM      29.91F
KOKOMO*        CLEAR     70  63  78 CALM      29.92F
MUNCIE*        CLOUDY    73  68  84 CALM      29.93F
INDIANAPOLIS   CLOUDY    79  65  62 NE6       29.92F

$$
MIZ043>046-050>051-056>058-064>065-071>073-077>080-280800-
SOUTHWEST LOWER MICHIGAN

CITY           SKY/WX    TMP DP  RH WIND       PRES   REMARKS
BATTLE CREEK   CLOUDY    67  65  93 CALM      29.94F
BENTON HARBOR  CLEAR     67  64  90 E3        29.92F
COLDWATER*     CLEAR     65  65  99 CALM      29.93F
HILLSDALE*     CLEAR     63  61  93 CALM      29.95F
HOLLAND        PTCLDY    68  65  90 CALM      29.94F
GRAND RAPIDS   PTCLDY    68  64  87 N3        29.94F
KALAMAZOO      CLOUDY    69  63  81 CALM      29.93F
STURGIS*       CLEAR     65  63  91 CALM      29.93F
THREE RIVERS*  FAIR      69  65  86 CALM      29.94F

$$
OHZ001>008-015>018-024>025-280800-
NORTHWEST OHIO

CITY           SKY/WX    TMP DP  RH WIND       PRES   REMARKS
DEFIANCE       CLEAR     72  65  78 CALM      29.91F
FINDLAY        CLOUDY    70  62  76 CALM      29.91F
TOLEDO METCALF PTCLDY    72  65  78 CALM      29.93S
LIMA           PTCLDY    71  66  84 CALM      29.93F

$$
AND FOR LAKE MICHIGAN COASTAL AND OPEN LAKE BUOY OBSERVATIONS

STATION/POSITION TEMP    WIND        PRES    VSBY  WAVE
                 AIR SEA DIR/SP/G                  HT/PER
                 (F)     (DEG/KT/KT) (MB)    (MI)  (FT/S)
CALUMET HARBOR    76     110/  3/  4 1013.2F
MICHIGAN CITY     75      60/  4/  4   N/A
BURNS HARBOR      76      CALM  /  5 1014.2S
SAINT JOSEPH      76     200/  3/  7 1014.2F
SOUTH LAKE BUOY   76 75  220/  4/  4 1012.9          0
4 MI NW BRIDGMAN  77 79  220/  2/  4 1013.1F         0
MICHIGAN CITY     77 77  100/  2/  2   N/A           0

$$
&&




USA.gov is the U.S. government's official web portal to all federal, state and local government web resources and services.